Stations météo

réclame
Mon MeteoGroup
Cluanie Inn No 3, Grande-Bretagne (99117): Température de l'air & dewpoint: 08.08.2018 22:00:00 - 14.08.2018 22:00:00 (BST)Cluanie Inn No 3, Grande-Bretagne (99117): Quantités de précipitations: 08.08.2018 22:00:00 - 14.08.2018 22:00:00 (BST)
Date & Time tt [°C] td [°C] rr [mm]
14.08.2018 22:00:00 13,6 9,9 0,0
14.08.2018 21:00:00 13,7 9,7 0,0
14.08.2018 20:00:00 14,0 10,5 0,0
14.08.2018 19:00:00 14,9 11,1 0,0
14.08.2018 18:00:00 15,3 11,7 0,0
14.08.2018 17:00:00 16,1 12,8 0,0
14.08.2018 16:00:00 16,1 13,5 0,2
14.08.2018 15:00:00 16,3 14,5 0,2
14.08.2018 14:00:00 16,7 14,7 0,0
14.08.2018 13:00:00 16,2 13,7 0,0
14.08.2018 12:00:00 15,5 14,6 1,0
14.08.2018 11:00:00 13,7 12,8 2,4
14.08.2018 10:00:00 14,4 11,9 0,2
14.08.2018 09:00:00 13,8 11,6 0,0
14.08.2018 08:00:00 12,9 12,4 0,0
14.08.2018 07:00:00 12,5 11,9 0,2
14.08.2018 06:00:00 12,5 11,6 0,0
14.08.2018 05:00:00 12,7 11,5 0,0
14.08.2018 04:00:00 12,6 11,7 0,0
14.08.2018 03:00:00 12,5 11,7 0,0
14.08.2018 02:00:00 12,5 11,8 0,0
14.08.2018 01:00:00 12,7 11,3 0,0
14.08.2018 00:00:00 12,9 11,2 0,0
13.08.2018 23:00:00 13,0 11,1 0,0
13.08.2018 22:00:00 13,0 11,7 0,0
13.08.2018 21:00:00 13,3 12,2 0,0
13.08.2018 20:00:00 14,8 12,2 0,0
13.08.2018 19:00:00 15,1 12,2 0,0
13.08.2018 18:00:00 15,9 12,6 0,0
13.08.2018 17:00:00 16,0 13,9 0,0
13.08.2018 16:00:00 17,5 14,3 0,0
13.08.2018 15:00:00 16,8 12,1 0,0
13.08.2018 14:00:00 16,2 12,7 0,0
13.08.2018 13:00:00 15,4 12,5 0,0
13.08.2018 12:00:00 14,9 13,0 0,0
13.08.2018 11:00:00 13,7 11,8 0,0
13.08.2018 10:00:00 13,3 11,6 0,0
13.08.2018 09:00:00 12,8 11,5 0,0
13.08.2018 08:00:00 12,5 11,3 0,0
13.08.2018 07:00:00 12,3 11,1 0,0
13.08.2018 06:00:00 12,3 11,0 0,0
13.08.2018 05:00:00 12,4 11,0 0,0
13.08.2018 04:00:00 12,4 11,1 0,0
13.08.2018 03:00:00 12,2 11,3 0,4
13.08.2018 02:00:00 12,2 11,3 0,2
13.08.2018 01:00:00 12,5 11,3 0,0
13.08.2018 00:00:00 12,5 11,2 0,0
12.08.2018 23:00:00 12,6 11,2 0,0
12.08.2018 22:00:00 12,6 11,6 0,2
12.08.2018 21:00:00 12,8 11,7 0,0
12.08.2018 20:00:00 13,1 11,7 0,0
12.08.2018 19:00:00 12,9 12,3 0,0
12.08.2018 18:00:00 13,4 12,2 0,2
12.08.2018 17:00:00 13,6 12,2 1,2
12.08.2018 16:00:00 13,8 12,2 0,8
12.08.2018 15:00:00 14,2 11,7 0,0
12.08.2018 14:00:00 13,9 11,5 0,0
12.08.2018 13:00:00 13,6 11,0 0,0
12.08.2018 12:00:00 14,4 10,0 0,0
12.08.2018 11:00:00 14,4 9,6 0,0
12.08.2018 10:00:00 13,9 9,3 0,0
12.08.2018 09:00:00 13,5 8,7 0,0
12.08.2018 08:00:00 13,1 8,4 0,0
12.08.2018 07:00:00 12,7 8,2 0,0
12.08.2018 06:00:00 12,6 7,8 0,0
12.08.2018 05:00:00 11,9 7,9 0,0
12.08.2018 04:00:00 11,6 7,5 0,0
12.08.2018 03:00:00 11,0 7,1 0,0
12.08.2018 02:00:00 11,3 7,1 0,0
12.08.2018 01:00:00 11,5 7,2 0,0
12.08.2018 00:00:00 12,3 7,5 0,0
11.08.2018 23:00:00 12,8 7,7 0,0
11.08.2018 22:00:00 13,1 7,7 0,0
11.08.2018 21:00:00 13,4 8,1 0,0
11.08.2018 20:00:00 13,8 8,4 0,0
11.08.2018 19:00:00 14,1 7,7 0,0
11.08.2018 18:00:00 14,8 6,6 0,0
11.08.2018 17:00:00 15,0 7,1 0,0
11.08.2018 16:00:00 15,2 6,7 0,0
11.08.2018 15:00:00 14,7 7,8 0,0
11.08.2018 14:00:00 14,9 6,1 0,0
11.08.2018 13:00:00 14,3 6,4 0,0
11.08.2018 12:00:00 13,7 6,2 0,0
11.08.2018 11:00:00 13,2 7,7 0,0
11.08.2018 10:00:00 12,6 7,5 0,0
11.08.2018 09:00:00 11,8 8,0 0,0
11.08.2018 08:00:00 9,9 7,7 0,0
11.08.2018 07:00:00 8,3 7,7 0,0
11.08.2018 06:00:00 7,3 6,4 0,0
11.08.2018 05:00:00 7,6 5,6 0,0
11.08.2018 04:00:00 8,1 5,5 0,0
11.08.2018 03:00:00 10,0 6,8 0,0
11.08.2018 02:00:00 10,4 7,1 0,0
11.08.2018 01:00:00 9,7 7,9 0,0
11.08.2018 00:00:00 11,1 8,1 0,0
10.08.2018 23:00:00 11,5 8,4 0,0
10.08.2018 22:00:00 11,6 8,4 0,0
10.08.2018 21:00:00 11,4 8,1 0,0
10.08.2018 20:00:00 12,9 8,0 0,0
10.08.2018 19:00:00 13,3 7,6 0,0
10.08.2018 18:00:00 13,9 7,5 0,0
10.08.2018 17:00:00 13,3 8,6 0,0
10.08.2018 16:00:00 14,2 8,0 0,0
10.08.2018 15:00:00 14,0 8,3 0,0
10.08.2018 14:00:00 13,9 8,0 0,0
10.08.2018 13:00:00 13,4 8,2 0,0
10.08.2018 12:00:00 13,9 7,0 0,0
10.08.2018 11:00:00 13,2 8,4 0,0
10.08.2018 10:00:00 12,2 8,5 0,0
10.08.2018 09:00:00 11,7 8,0 0,0
10.08.2018 08:00:00 10,2 9,9 0,0
10.08.2018 07:00:00 9,7 9,7 0,0
10.08.2018 06:00:00 9,1 8,9 0,0
10.08.2018 05:00:00 9,5 9,2 1,0
10.08.2018 04:00:00 9,6 9,1 0,2
10.08.2018 03:00:00 9,5 9,0 0,0
10.08.2018 02:00:00 9,3 8,5 0,0
10.08.2018 01:00:00 8,1 7,8 0,0
10.08.2018 00:00:00 7,6 6,7 0,0
09.08.2018 23:00:00 9,7 8,4 0,0
09.08.2018 22:00:00 10,0 8,4 0,0
09.08.2018 21:00:00 10,9 8,8 0,0
09.08.2018 20:00:00 11,3 9,1 1,2
09.08.2018 19:00:00 11,8 8,5 1,4
09.08.2018 18:00:00 13,0 8,1 0,0
09.08.2018 17:00:00 13,7 8,2 0,0
09.08.2018 16:00:00 14,0 9,6 0,2
09.08.2018 15:00:00 13,0 8,6 1,0
09.08.2018 14:00:00 11,0 8,6 1,6
09.08.2018 13:00:00 13,5 8,5 0,0
09.08.2018 12:00:00 11,9 6,7 1,0
09.08.2018 11:00:00 10,9 7,9 1,8
09.08.2018 10:00:00 11,4 8,1 1,0
09.08.2018 09:00:00 11,3 6,2 0,0
09.08.2018 08:00:00 11,4 6,0 0,2
09.08.2018 07:00:00 9,8 7,4 0,4
09.08.2018 06:00:00 9,0 7,8 1,4
09.08.2018 05:00:00 9,6 7,5 0,6
09.08.2018 04:00:00 9,8 6,9 0,6
09.08.2018 03:00:00 10,4 6,4 0,0
09.08.2018 02:00:00 10,6 5,9 0,0
09.08.2018 01:00:00 9,8 6,7 0,2
09.08.2018 00:00:00 9,8 6,5 0,2
08.08.2018 23:00:00 9,6 6,9 1,2
08.08.2018 22:00:00 9,7 7,4 0,2

tt = Température de l'air
td = dewpoint
rr = Quantités de précipitations

stations d'obs. à proximité